カタログに戻る

NOAA 17 DEB

運用中PO
NORAD 48724·DEBRIS·🇺🇸 United States

打ち上げ Jun 24, 2002 から Vandenberg Space Force Base

Loading…

次のパス (今後24時間)

TLE

最新Source: Space-Track

元期: Sep 14, 2026, 09:52 UTC

1 48724U 02032BH  26257.41164818  .00007308  00000-0  10149-2 0  9992
2 48724  98.7358 308.4097 0021655  20.8109 339.3976 14.78067249290983

AllMySatでNOAA 17 DEBをリアルタイム追跡

Download on the App Store